Weather Roundup
Issued by NWS

Home | Current Version | Previous Version | Text Only | Print | Product List | Glossary On
Versions: 1 2 3 4 5 6 7 8 9 10 11 12 13 14 15 16 17 18 19 20 21 22 23 24 25 26 27 28 29 30 31 32 33 34 35 36 37 38 39 40 41 42 43 44 45 46 47 48 49 50
000
NZUS93 KARX 051510
HRRWXR

CURRENT HOURLY OBSERVATIONS ACROSS
MUCH OF THE UPPER MISSISSIPPI VALLEY
NATIONAL WEATHER SERVICE LA CROSSE WI
1000 AM CDT TUE MAY 05 2015


...SOUTHEAST MINNESOTA...


CITY           SKY/WX    TMP DP  RH WIND       PRES   REMARKS
ROCHESTER      CLOUDY    51  49  92 E14       30.22S
ROCHESTER/MAYO CLOUDY    51  51 100 E8        30.22R
WINONA         CLOUDY    55  46  71 SE13      30.24S
AUSTIN         CLOUDY    52  50  93 E14G24    30.18S
ALBERT LEA     CLOUDY    55  52  88 E17G23    30.17R
DODGE CENTER   CLOUDY    54  52  94 E14       30.20R FOG
PRESTON        CLOUDY    51  48  91 E13       30.22S
OWATONNA       PTSUNNY   57  50  77 SE20G32   30.18R
FARIBAULT      MOSUNNY   63  50  63 E18       30.18F
$$

...ELSEWHERE IN MINNESOTA...


CITY           SKY/WX    TMP DP  RH WIND       PRES   REMARKS
MINNEAPOLIS    MOSUNNY   62  43  49 SE16      30.20F
INTNL FALLS    SUNNY     65  26  23 S9        30.22F
DULUTH         SUNNY     61  30  31 SE13      30.27F
RED WING       MOSUNNY   63  41  45 SE14      30.20S
REDWOOD FALLS  MOSUNNY   65  37  35 E9        30.14F
MANKATO        CLOUDY    59  46  63 E15       30.17R
WORTHINGTON    CLOUDY    57  39  51 E12       30.13S
FAIRMONT       CLOUDY    57  48  72 E10       30.13S
$$

...SOUTHWEST WISCONSIN...


CITY           SKY/WX    TMP DP  RH WIND       PRES   REMARKS
LA CROSSE      LGT RAIN  54  48  80 SE8       30.25R
PRAIRIE DU CHI DRIZZLE   52  48  84 E10       30.23R
BOSCOBEL       LGT RAIN  52  48  86 NE7       30.25R
LONE ROCK      LGT RAIN  50  47  89 E9        30.26R
PLATTEVILLE    CLOUDY    51  49  93 E18       30.22R
FORT MC COY    CLOUDY    54  40  59 E10       30.27S
CAMP DOUGLAS   PTSUNNY   54  43  66 E12       30.27R
VIROQUA        CLOUDY    50  50 100 E15       30.25R
WIS DELLS      NOT AVBL
$$

...ELSEWHERE IN WISCONSIN...


CITY           SKY/WX    TMP DP  RH WIND       PRES   REMARKS
MILWAUKEE      LGT RAIN  47  42  83 E12       30.28R
MADISON        LGT RAIN  51  46  83 E7        30.26R
GREEN BAY      PTSUNNY   55  37  50 NE9       30.32R
EAU CLAIRE     SUNNY     63  25  23 SE17G23   30.25F
BLACK RVR FLS  FAIR      59  38  45 SE9       30.26S
MEDFORD        SUNNY     58  25  28 SE12      30.29S
WAUSAU         SUNNY     59  26  28 SE10      30.29S
WIS RAPIDS     NOT AVBL
MARSHFIELD     SUNNY     59  32  36 SE15      30.29S
RICE LAKE      SUNNY     62  21  20 E13G21    30.28S
$$

...NORTHEAST IOWA...


CITY           SKY/WX    TMP DP  RH WIND       PRES   REMARKS
DECORAH        LGT RAIN  52  50  93 E16       30.20S
MASON CITY     LGT RAIN  53  52  96 E18       30.16S
CHARLES CITY   CLOUDY    52  52 100 E17       30.17S
OELWEIN        CLOUDY    54  52  94 E15       30.18S FOG
$$

...ELSEWHERE IN IOWA...


CITY           SKY/WX    TMP DP  RH WIND       PRES   REMARKS
DES MOINES     CLOUDY    67  61  81 S10       30.11S
IOWA CITY      CLOUDY    66  62  87 SE6       30.17R
FORT DODGE     CLOUDY    59  55  88 E9        30.13R
$$

...NORTHERN ILLINOIS...


CITY           SKY/WX    TMP DP  RH WIND       PRES   REMARKS
CHICAGO-OHARE  CLOUDY    50  49  96 E10       30.22R
CHICAGO-MIDWAY CLOUDY    53  52  96 NE10      30.22S FOG
MOLINE         CLOUDY    62  59  90 E8        30.17S FOG
ROCKFORD       LGT RAIN  55  51  86 E7        30.24S
PEORIA         MOSUNNY   72  62  71 SE8       30.17S
$$

NOTE: "FAIR" INDICATES FEW OR NO CLOUDS BELOW 12,000 FEET WITH NO
SIGNIFICANT WEATHER AND/OR OBSTRUCTIONS TO VISIBILITY. WIND
SPEEDS ARE IN MILES-PER-HOUR.



USA.gov is the U.S. government's official web portal to all federal, state and local government web resources and services.